Weather History for Leesburg, FL

Change the Weather History Date:

Tuesday, September 3, 2013

  Actual Average Record
Temperature  
Mean Temperature 82 °F -  
Max Temperature 90 °F 89 °F 97 °F (1999)
Min Temperature 73 °F 71 °F 63 °F (1972)
Cooling Degree Days 16    
Growing Degree Days 32 (Base 50)    
Moisture  
Dew Point 73 °F    
Average Humidity 79    
Maximum Humidity 94    
Minimum Humidity 59    
Precipitation  
Precipitation 0.73 in - - ()
Sea Level Pressure  
Sea Level Pressure 30.00 in    
Wind  
Wind Speed 5 mph (WSW)    
Max Wind Speed 25 mph    
Max Gust Speed 41 mph    
Visibility 8 miles    
Events Rain    
Averages and records for this station are not official NWS values.
T = Trace of Precipitation, MM = Missing Value Source: NWS Daily Summary

Daily Weather History Graph

Daily Weather History Graph

Search for Another Location

Airport:

Trip Planner

Search our weather history database for the weather conditions in past years. The results will help you decide how hot, cold, wet, or windy it might be!

Date:

Astronomy

Sep. 03, 2013 Rise Set
Actual Time 7:06 AM EDT 7:46 PM EDT
Civil Twilight 6:42 AM EDT 8:10 PM EDT
Nautical Twilight 6:14 AM EDT 8:38 PM EDT
Astronomical Twilight 5:45 AM EDT 9:06 PM EDT
Moon 5:23 AM EDT (9/3) 6:30 PM EDT (9/3)
Length of Visible Light 13h 27m
Length of Day
12h 39m
Waning Crescent, 3% of the Moon is Illuminated
Sep 3
Waning Crescent
Sep 5
New
Sep 12
First Quarter
Sep 19
Full
Sep 26
Last Quarter

Hourly Weather History & Observations

Time (EDT) Temp. Heat Index Dew Point Humidity Pressure Visibility Wind Dir Wind Speed Gust Speed Precip Events Conditions
12:53 AM 78.1 °F - 73.9 °F 87% 29.98 in 10.0 mi Calm Calm - N/A   Clear
1:53 AM 78.1 °F - 75.0 °F 90% 29.98 in 10.0 mi South 6.9 mph - N/A   Partly Cloudy
2:53 AM 78.1 °F - 75.0 °F 90% 29.96 in 10.0 mi South 4.6 mph - N/A   Clear
3:53 AM 77.0 °F - 73.9 °F 90% 29.96 in 10.0 mi SSW 6.9 mph - N/A   Clear
4:53 AM 75.9 °F - 73.9 °F 94% 29.96 in 10.0 mi SSW 6.9 mph - N/A   Clear
5:53 AM 75.0 °F - 73.0 °F 94% 29.97 in 10.0 mi SSW 5.8 mph - N/A   Clear
6:53 AM 75.0 °F - 73.0 °F 94% 29.98 in 10.0 mi SSW 4.6 mph - N/A   Partly Cloudy
7:53 AM 75.9 °F - 73.9 °F 94% 30.00 in 8.0 mi SSW 3.5 mph - N/A   Clear
8:53 AM 80.1 °F 85.1 °F 75.0 °F 85% 30.00 in 10.0 mi West 4.6 mph - N/A   Clear
9:53 AM 82.9 °F 89.4 °F 73.9 °F 74% 30.02 in 10.0 mi West 3.5 mph - N/A   Clear
10:53 AM 86.0 °F 93.8 °F 73.9 °F 67% 30.04 in 10.0 mi West 4.6 mph - N/A   Clear
11:53 AM 87.1 °F 96.3 °F 75.0 °F 67% 30.04 in 10.0 mi SSE 5.8 mph - N/A   Scattered Clouds
12:53 PM 87.1 °F 94.5 °F 73.0 °F 63% 30.02 in 10.0 mi SSE 3.5 mph - 0.00 in Rain Light Rain
1:07 PM 82.4 °F 89.5 °F 75.2 °F 79% 30.05 in 1.2 mi North 25.3 mph 41.4 mph 0.18 in Rain Heavy Rain
1:14 PM 78.8 °F - 69.8 °F 74% 30.03 in 0.5 mi NNW 15.0 mph 41.4 mph 0.30 in Rain Heavy Rain
1:22 PM 77.0 °F - 71.6 °F 83% 30.03 in 1.8 mi North 6.9 mph - 0.40 in Rain Heavy Rain
1:29 PM 77.0 °F - 71.6 °F 83% 30.04 in 1.2 mi West 15.0 mph 20.7 mph 0.49 in Rain Heavy Rain
1:40 PM 75.2 °F - 68.0 °F 78% 30.03 in 3.0 mi SSW 16.1 mph 24.2 mph 0.54 in Rain Light Rain
1:43 PM 75.2 °F - 66.2 °F 73% 30.03 in 2.5 mi SSW 16.1 mph 24.2 mph 0.59 in Rain Rain
1:53 PM 75.0 °F - 68.0 °F 79% 30.02 in 1.0 mi Calm Calm - 0.71 in Rain Heavy Rain
2:03 PM 73.4 °F - 71.6 °F 94% 30.02 in 4.0 mi Calm Calm - 0.02 in Rain Light Rain
2:53 PM 84.0 °F 91.9 °F 75.0 °F 74% 29.99 in 10.0 mi NW 3.5 mph - 0.02 in   Partly Cloudy
3:53 PM 87.1 °F 95.4 °F 73.9 °F 65% 29.96 in 10.0 mi WNW 3.5 mph - N/A   Clear
4:53 PM 89.1 °F 98.0 °F 73.9 °F 61% 29.95 in 10.0 mi Calm Calm - N/A   Clear
5:53 PM 90.0 °F 99.0 °F 73.9 °F 59% 29.94 in 10.0 mi WNW 3.5 mph - N/A   Clear
6:53 PM 88.0 °F 95.6 °F 73.0 °F 61% 29.94 in 10.0 mi WNW 4.6 mph - N/A   Clear
7:53 PM 84.0 °F 91.2 °F 73.9 °F 72% 29.97 in 10.0 mi West 3.5 mph - N/A   Clear
8:53 PM 82.9 °F 90.8 °F 75.9 °F 79% 29.99 in 10.0 mi South 6.9 mph - 0.00 in   Partly Cloudy
9:53 PM 82.0 °F 89.4 °F 75.9 °F 82% 30.01 in 10.0 mi SSW 3.5 mph - N/A   Mostly Cloudy
10:53 PM 81.0 °F 86.7 °F 75.0 °F 82% 30.02 in 10.0 mi Calm Calm - 0.00 in   Mostly Cloudy
11:53 PM 79.0 °F - 75.0 °F 88% 30.02 in 10.0 mi Calm Calm - N/A   Clear